Regional Weather Roundup
Issued by NWS Spokane, WA

Home | Current Version | Previous Version | Text Only | Print | Product List | Glossary On
Versions: 1 2 3 4 5 6 7 8 9 10 11 12 13 14 15 16 17 18 19 20 21 22 23 24 25 26 27 28 29 30 31 32 33 34 35 36 37 38 39 40 41 42 43 44 45 46 47 48 49 50
000
NZUS01 KOTX 310200
RWROTX
EASTERN WASHINGTON/NORTHERN IDAHO ROUNDUP
NATIONAL WEATHER SERVICE, SPOKANE WA
700 PM PDT WED JUL 30 2014

Note: "fair" indicated few or no clouds below 12,000 feet with no
significant weather and/or obstructions to visibility.

...NORTHEAST WASHINGTON AND NORTHERN IDAHO PANHANDLE...

CITY           SKY/WX    TMP DP  RH WIND       PRES   REMARKS
SPOKANE INTL   MOSUNNY   96  36  12 SW10      29.99F HX  91
SPOKANE DOWNTO SUNNY     98  33  10 SW3       29.96F HX  92
COEUR D ALENE  SUNNY     93  48  21 CALM      29.97S HX  90
DEER PARK        N/A     95  39  14 S6        29.97F HX  91
SANDPOINT      SUNNY     86  59  39 CALM      29.97F

...SOUTHEAST WASHINGTON AND SOUTHERN IDAHO PANHANDLE...

CITY           SKY/WX    TMP DP  RH WIND       PRES   REMARKS
WALLA WALLA    MOSUNNY  100  45  15 N8        29.93S HX  96
PULLMAN/MOSCOW MOSUNNY   90  41  18 NW3       30.04S
LOWELL           N/A     81  58  45 CALM      29.95S

...COLUMBIA BASIN...

CITY           SKY/WX    TMP DP  RH WIND       PRES   REMARKS
EPHRATA        MOSUNNY  101  27   7 S10       29.90F HX  94
MOSES LAKE     MOSUNNY  101  33   9 S5        29.91F HX  95
TRI CITIES     MOSUNNY  103  50  17 E5        29.85S HX 100
HERMISTON      MOSUNNY  102  42  13 SW3       29.87S HX  97
PENDLETON      MOSUNNY   98  38  12 NW10      29.94R HX  93

...EAST SLOPES CASCADES...

CITY           SKY/WX    TMP DP  RH WIND       PRES   REMARKS
THE DALLES     SUNNY     91  56  30 NW15G24   29.89S
YAKIMA         SUNNY    100  33   9 N13       29.91S HX  94
ELLENSBURG     SUNNY     87  46  24 NW21G28   29.99S
WENATCHEE      SUNNY     99  32   9 NW18      29.91R HX  93
OMAK           MOSUNNY   99  33  10 S3        29.88F HX  93

...SOUTHERN BRITISH COLUMBIA...

CITY           SKY/WX    TMP DP  RH WIND       PRES   REMARKS

...WESTERN MONTANA...

CITY           SKY/WX    TMP DP  RH WIND       PRES   REMARKS
MISSOULA       MOSUNNY   90  40  17 W8        30.07S

...NEIGHBORING CITIES...

CITY           SKY/WX    TMP DP  RH WIND       PRES   REMARKS
SEATTLE        MOSUNNY   82  48  30 N12       30.10S
CALGARY        CLOUDY    77  55  47 W8        30.09F THUNDER



USA.gov is the U.S. government's official web portal to all federal, state and local government web resources and services.